Temperature
18 17 17 17 17 17 17 16 16 16 16 16 16 16 16 15 15 15 15 15 15 15 15 15 15 15 15 15 15 15 15 14 14 13 13 13 13 13 13 13 13 13 13
18 18 17 17 17 17 17 16 16 16 16 16 16 16 16 16 15 15 15 15 15 15 15 15 15 15 15 14 14 14 14 14 14 13 13 13 13 13 13 13 13 13 13
18 18 18 17 17 17 17 16 16 16 16 16 16 16 16 16 16 15 15 15 15 15 15 15 15 14 14 14 14 14 14 14 13 13 13 12 12 12 13 12 12 12 12
18 18 18 18 17 17 17 16 16 16 16 16 16 16 16 16 16 15 15 15 15 15 15 15 15 14 14 14 14 14 14 13 13 13 12 12 12 12 12 12 12 12 12
18 18 18 18 17 17 17 16 16 16 16 16 16 16 16 16 16 16 15 15 15 15 15 15 14 14 14 14 14 14 13 13 13 13 12 12 12 12 12 12 12 12 12
18 18 18 18 17 17 17 17 16 16 16 16 16 16 16 16 16 16 15 15 15 15 15 14 14 14 14 14 14 14 13 13 13 13 12 12 12 12 12 12 11 11 11
18 18 18 18 17 17 17 17 16 16 16 16 16 16 16 16 16 15 15 15 15 15 14 14 14 14 14 14 14 13 13 13 13 13 12 12 12 12 12 12 11 11 11
18 18 18 18 17 17 17 17 17 16 16 16 16 16 16 16 15 15 15 15 15 14 14 14 14 14 14 14 13 13 13 13 13 13 13 12 12 12 12 11 11 11 11
18 18 18 18 17 17 17 17 17 16 16 16 16 16 16 16 15 15 15 15 15 15 14 14 14 14 14 13 13 13 13 13 13 12 12 12 12 12 12 11 11 11 11
18 18 18 18 17 17 17 17 17 16 16 16 16 16 16 15 15 15 15 14 14 14 14 14 14 14 14 13 13 13 13 13 12 12 12 12 12 11 11 11 11 10 10
18 18 18 17 17 17 17 17 17 16 16 16 16 16 16 15 15 15 15 14 14 14 14 14 14 14 13 13 13 13 12 12 12 12 12 11 11 11 11 11 10 10 10
19 18 18 17 17 17 17 17 16 16 16 16 16 16 16 15 15 15 15 15 14 14 14 14 14 14 13 13 13 13 12 12 12 11 11 11 11 11 10 10 10 10 10
19 18 18 17 17 17 17 16 16 16 16 16 15 15 15 16 15 15 15 15 14 14 14 14 13 13 13 13 12 12 12 12 11 11 11 11 10 10 10 10 9 9 9
18 18 18 17 17 16 16 16 16 16 16 16 15 15 15 15 15 15 15 15 14 14 14 13 13 13 13 12 12 12 12 11 11 11 11 10 10 10 10 9 9 9 8
18 18 17 17 16 16 16 16 16 16 16 16 15 15 15 15 15 15 15 15 14 14 13 13 13 12 12 12 12 11 11 11 11 10 10 10 10 9 9 9 8 8 8
17 17 17 16 16 16 16 15 15 15 15 15 15 15 15 15 14 14 14 14 14 13 13 13 12 12 12 12 11 11 11 11 10 10 10 9 9 9 9 8 8 7 7
17 17 16 16 16 15 15 15 15 15 15 14 14 14 14 14 14 14 14 13 13 13 13 12 12 12 12 11 11 11 10 10 10 9 9 9 9 8 8 8 7 7 7
17 16 16 16 16 15 15 15 15 15 15 14 14 14 14 14 13 13 13 13 13 12 12 12 12 12 11 11 10 10 10 10 9 9 9 8 8 8 7 7 7 6 6
16 16 15 15 15 15 15 15 15 14 14 14 14 14 14 13 13 13 12 12 12 12 12 12 12 11 11 10 10 10 9 9 9 8 8 8 7 7 7 6 6 6 6
15 15 15 15 15 15 14 14 14 14 14 14 14 14 14 13 13 13 12 12 12 12 12 11 11 11 10 10 10 9 9 8 8 8 8 7 7 7 6 6 6 5 5
15 15 15 15 14 14 14 14 14 14 14 14 14 14 14 13 13 13 12 12 12 12 11 11 10 10 10 10 9 9 8 8 8 7 7 7 7 6 6 5 5 5 5
15 15 15 14 14 14 14 14 14 14 13 13 13 13 13 13 12 12 12 12 11 11 11 10 10 10 9 9 9 8 8 8 7 7 7 6 6 6 5 5 5 4 4
14 14 14 14 14 14 13 13 13 13 13 13 13 12 12 12 12 11 11 11 11 10 10 10 10 9 9 8 8 8 7 7 7 6 6 5 5 5 4 4 4 4 3
14 14 14 13 13 13 13 13 13 12 12 12 12 12 12 11 11 11 11 10 10 10 9 9 9 8 8 8 7 7 7 6 6 5 5 5 4 4 4 3 3 3 3
13 13 13 13 12 12 12 12 12 12 12 11 11 11 11 11 10 10 10 10 10 9 9 9 8 8 8 7 7 6 6 6 5 5 5 4 4 3 3 3 2 2 2
12 12 12 12 12 12 12 11 11 11 11 11 11 11 10 10 10 10 9 9 9 9 8 8 8 7 7 7 6 6 5 5 5 4 4 4 3 3 2 2 2 1 1
Wind_Speed
6 5 5 5 5 4 4 3 4 4 4 5 4 5 5 5 5 4 4 4 5 4 4 5 5 5 4 4 4 4 5 4 4 2 2 2 4 4 5 5 6 7 7
7 7 7 6 5 5 5 3 3 4 4 5 4 4 5 6 5 5 4 5 4 5 5 5 5 5 5 4 4 4 4 4 4 3 2 2 3 2 3 3 4 5 5
7 7 7 7 6 6 6 4 3 4 5 5 5 4 5 5 5 5 4 4 4 5 5 6 5 5 4 3 4 4 3 4 3 3 2 2 2 2 3 3 3 3 3
7 7 7 7 7 6 6 5 4 4 4 4 5 5 5 5 4 4 4 4 5 6 6 6 6 5 4 4 4 3 3 3 3 2 2 2 1 2 2 2 3 2 2
8 7 7 8 7 7 6 5 4 4 4 4 4 5 4 4 4 4 3 5 5 6 6 6 6 8 8 6 5 4 4 3 2 2 2 2 2 2 2 2 2 2 3
9 8 7 7 7 7 7 6 5 4 4 5 4 4 5 4 6 7 5 3 3 5 5 5 5 6 7 9 9 8 7 4 3 2 2 1 2 1 1 2 2 3 3
10 9 8 8 8 8 7 6 6 5 4 5 4 4 5 5 6 6 5 3 3 2 4 4 4 4 5 3 3 4 5 6 5 3 3 2 2 3 2 3 3 2 2
10 10 9 8 8 8 8 7 6 5 5 5 5 5 5 4 6 5 3 2 2 1 2 3 4 4 3 3 3 2 2 2 2 2 2 1 2 3 2 2 2 2 3
11 10 10 10 9 9 9 8 6 6 6 5 5 5 5 4 5 5 3 2 2 1 1 3 4 3 3 4 3 2 1 0 1 2 2 1 2 4 5 3 4 3 3
12 11 11 10 10 9 9 8 6 6 6 6 6 6 6 5 6 6 4 2 3 2 2 3 4 4 4 4 3 2 0 1 1 0 1 2 2 3 3 1 0 1 2
11 11 11 11 10 9 8 7 7 7 6 6 6 6 6 6 8 8 6 3 3 3 3 2 2 5 4 3 3 1 1 2 2 1 1 1 1 1 1 1 1 1 1
11 11 11 11 10 9 9 8 7 7 7 6 6 5 5 5 7 8 8 5 2 2 3 3 3 6 4 3 2 1 2 3 2 2 2 2 2 2 1 2 2 3 2
11 10 10 10 8 8 9 8 7 7 6 6 5 5 4 4 5 9 9 7 5 2 2 4 5 5 4 2 3 2 1 1 1 2 2 2 2 2 1 2 3 4 5
11 10 9 9 8 8 7 7 7 7 6 6 6 6 5 5 5 5 5 5 5 4 2 3 3 3 3 3 3 3 2 2 2 3 2 2 2 2 2 2 2 2 3
9 9 9 8 8 8 6 4 5 5 6 6 5 5 6 6 7 10 8 6 5 5 4 2 1 1 2 2 2 2 2 2 3 3 2 3 3 3 3 2 2 2 3
8 8 7 7 6 7 7 5 5 4 6 7 6 6 4 6 10 12 11 9 8 8 5 3 3 3 3 2 2 2 2 2 2 2 2 3 3 3 3 3 2 2 4
7 7 6 7 7 7 7 7 5 3 5 4 5 7 6 8 10 10 10 9 8 8 4 3 3 3 2 2 2 2 2 2 2 2 2 3 3 3 3 3 3 3 4
7 7 7 6 6 6 6 6 6 6 4 2 2 5 8 8 9 9 9 7 4 4 3 3 3 2 2 2 2 2 2 1 1 2 2 2 2 3 3 4 4 4 4
6 5 5 5 5 5 5 6 6 6 5 5 4 3 5 7 7 7 8 4 4 4 4 3 3 2 2 2 2 1 1 1 1 1 2 2 2 3 3 4 4 6 5
5 8 7 5 5 5 5 5 5 5 5 5 5 5 5 5 4 4 5 4 4 4 4 4 3 3 2 2 2 2 1 1 1 1 2 2 2 2 4 4 4 4 4
5 6 8 5 4 4 4 4 5 5 5 5 5 7 9 6 6 6 5 4 4 4 3 3 3 2 2 1 1 1 1 1 1 1 2 2 2 3 3 3 4 4 4
4 5 5 5 4 4 4 4 4 4 5 5 4 5 9 5 4 4 4 4 4 3 3 3 2 2 3 2 2 1 1 0 1 1 2 2 2 3 3 4 4 4 4
4 5 4 4 4 5 4 4 4 4 4 4 5 5 6 4 4 4 3 3 2 2 3 3 3 2 2 2 3 3 2 1 1 1 2 2 2 3 3 4 5 5 5
3 4 4 4 4 4 4 4 4 4 4 4 4 4 4 4 3 3 3 2 2 2 3 3 4 4 3 3 3 3 3 1 1 1 1 2 2 3 3 4 4 5 5
3 3 3 3 3 3 3 3 3 3 4 4 4 4 3 3 3 2 2 3 3 2 3 3 3 3 3 3 3 3 2 0 1 1 2 2 2 3 3 4 4 5 5
2 3 2 2 2 2 3 3 3 3 3 3 3 3 3 3 2 2 2 3 2 2 3 3 3 3 3 3 4 3 2 1 1 2 2 2 2 2 3 3 5 5 5
Wind_Direction
168 160 144 135 136 123 112 118 123 126 127 121 118 116 116 110 94 76 76 71 79 82 80 80 69 58 51 37 35 41 47 73 95 81 77 78 66 53 46 60 88 91 74
167 165 157 147 147 143 145 152 149 139 128 124 122 115 112 109 105 96 86 77 71 73 71 81 81 70 57 42 43 46 51 63 91 97 65 55 64 61 24 8 61 76 86
169 169 158 157 161 156 152 159 158 142 139 135 130 121 115 113 115 117 111 103 88 76 69 69 70 73 60 52 51 48 44 54 66 89 81 45 40 39 24 2 32 43 52
167 171 161 161 162 158 155 159 158 145 140 137 132 125 117 112 111 118 119 111 105 93 82 76 66 66 58 53 55 45 47 51 52 65 75 52 32 8 29 360 357 350 1
171 174 168 162 156 149 147 153 149 144 137 127 116 116 108 101 87 88 108 115 117 114 107 98 87 83 76 67 64 45 45 45 48 56 52 42 23 18 354 334 351 337 345
171 171 164 158 151 150 153 152 147 140 132 124 119 110 106 97 84 75 68 87 110 122 124 123 121 103 92 82 75 66 60 58 49 49 29 33 358 342 342 355 350 358 336
172 168 164 160 153 154 154 147 145 142 129 122 124 115 111 107 104 93 74 65 67 91 116 124 122 118 118 113 86 70 52 50 61 80 51 13 356 348 13 355 348 346 299
175 169 165 161 157 154 152 152 152 145 142 138 136 135 130 132 133 126 116 116 85 63 87 117 114 108 90 105 111 94 80 56 59 76 87 28 27 10 13 348 320 331 319
173 166 165 164 162 160 161 162 160 156 153 150 149 151 148 156 162 158 147 156 136 132 93 87 107 109 90 108 121 126 117 213 147 154 155 116 13 9 15 19 1 2 333
170 167 166 165 165 165 166 164 157 154 157 155 159 163 165 169 177 177 174 175 169 172 145 113 97 109 99 107 117 121 116 300 311 261 268 274 284 308 333 23 38 353 321
163 162 163 164 166 165 162 159 155 155 158 161 162 165 171 175 179 181 180 183 180 173 157 146 132 126 120 123 133 145 223 291 308 304 284 283 306 308 346 344 33 156 259
153 157 161 162 165 165 158 160 159 156 162 168 169 169 171 172 170 178 177 182 172 152 156 153 153 150 147 150 169 230 309 335 323 325 323 312 305 300 309 352 307 286 264
150 153 156 156 156 156 159 161 161 164 169 175 174 176 173 164 163 167 175 180 177 158 138 144 162 175 172 185 207 234 272 289 292 288 283 279 276 282 347 341 323 302 293
151 153 154 157 157 155 155 163 168 174 178 181 181 182 176 165 164 166 174 175 171 173 165 143 151 173 191 207 214 230 222 224 231 248 266 278 287 303 295 275 287 301 306
152 155 158 157 158 158 152 157 170 173 177 178 181 175 174 180 185 172 169 176 176 174 162 159 170 172 205 222 217 208 210 221 243 256 263 278 287 286 280 275 279 291 291
150 152 154 154 152 151 147 128 84 117 142 153 147 146 158 159 156 159 160 160 158 157 156 185 198 198 203 208 217 234 228 223 234 242 252 263 271 274 278 279 273 272 281
149 149 147 149 152 155 155 153 144 90 82 101 137 143 142 145 148 153 153 150 152 152 164 197 197 202 211 215 218 223 232 230 229 242 251 262 270 280 285 289 287 283 283
140 141 142 147 151 158 162 160 158 159 159 148 138 149 149 149 151 152 147 134 142 165 186 196 199 202 207 212 219 229 239 249 253 260 265 277 280 284 289 291 289 287 287
137 140 142 146 151 156 157 159 161 162 159 152 137 132 147 143 146 155 152 161 176 187 198 203 203 206 207 207 211 219 229 243 261 267 270 273 276 278 282 283 285 291 292
138 143 143 147 149 148 153 157 158 160 159 157 157 155 151 146 155 171 188 194 194 196 195 200 201 201 204 205 206 210 232 248 263 276 281 280 281 282 286 290 292 293 290
131 142 140 138 139 145 152 157 156 157 161 162 163 164 162 173 181 180 185 193 198 202 201 198 193 190 191 184 186 204 221 245 287 306 305 303 304 300 293 290 291 292 293
135 137 140 142 141 145 153 154 150 153 159 157 153 157 165 171 173 172 180 191 200 194 176 170 176 172 171 175 175 175 173 226 310 314 309 309 312 309 306 305 307 311 313
134 139 143 144 142 149 154 151 152 156 158 155 152 154 169 181 176 176 182 188 183 167 146 146 157 153 141 144 141 136 161 210 294 331 309 306 310 308 309 309 312 316 315
124 137 147 144 143 149 155 155 155 155 154 153 154 159 168 175 173 173 172 166 156 154 157 162 165 164 154 137 144 150 155 188 290 333 333 312 311 316 317 314 309 306 306
112 124 135 139 142 148 151 150 153 153 152 153 155 154 155 159 163 164 162 150 151 162 163 156 154 157 155 148 142 146 152 78 341 3 356 336 311 312 314 314 311 309 307
101 110 119 125 128 138 146 149 151 150 150 148 147 148 153 158 162 160 154 153 161 167 156 144 145 143 144 148 147 138 121 56 2 334 324 311 297 298 307 306 306 308 307
Height
1553 1555 1557 1559 1560 1562 1563 1565 1566 1567 1568 1568 1569 1570 1570 1570 1571 1571 1572 1572 1572 1573 1573 1573 1574 1574 1574 1575 1575 1575 1575 1575 1575 1576 1575 1575 1574 1572 1571 1570 1568 1567 1565
1552 1554 1556 1558 1560 1561 1563 1564 1566 1567 1568 1569 1570 1570 1571 1571 1572 1572 1573 1573 1574 1574 1574 1574 1574 1575 1575 1575 1575 1575 1576 1576 1576 1575 1575 1575 1574 1573 1572 1570 1569 1568 1566
1550 1553 1555 1557 1559 1561 1562 1564 1565 1567 1568 1569 1570 1571 1572 1572 1573 1573 1574 1574 1575 1575 1575 1575 1575 1575 1575 1576 1576 1576 1576 1576 1576 1576 1576 1575 1574 1573 1572 1571 1569 1568 1566
1548 1551 1553 1556 1558 1560 1562 1563 1565 1567 1568 1569 1570 1571 1572 1573 1574 1574 1575 1575 1575 1576 1576 1576 1576 1576 1576 1577 1577 1577 1577 1577 1577 1576 1576 1575 1574 1573 1572 1571 1569 1568 1566
1545 1548 1551 1554 1556 1559 1561 1562 1564 1566 1567 1569 1570 1571 1572 1573 1574 1575 1575 1576 1576 1577 1577 1577 1577 1577 1577 1577 1577 1577 1577 1577 1577 1577 1576 1575 1574 1573 1572 1570 1569 1567 1566
1542 1546 1549 1552 1554 1557 1559 1561 1563 1565 1566 1568 1569 1570 1572 1572 1574 1575 1575 1576 1577 1577 1577 1577 1577 1578 1578 1578 1578 1578 1578 1577 1577 1576 1576 1575 1574 1573 1572 1570 1568 1566 1564
1540 1543 1546 1549 1552 1554 1557 1559 1561 1563 1565 1566 1568 1569 1571 1572 1573 1574 1575 1576 1576 1577 1577 1577 1577 1577 1578 1578 1578 1578 1577 1577 1577 1577 1575 1574 1574 1572 1571 1569 1567 1566 1564
1537 1540 1543 1546 1549 1552 1554 1557 1559 1561 1563 1565 1567 1568 1570 1571 1572 1573 1574 1575 1576 1576 1577 1577 1577 1577 1577 1577 1577 1577 1577 1576 1576 1576 1575 1574 1573 1572 1570 1569 1566 1565 1563
1533 1536 1540 1543 1546 1549 1552 1554 1557 1559 1561 1563 1565 1566 1568 1569 1571 1572 1573 1573 1574 1575 1576 1576 1576 1576 1576 1577 1576 1576 1576 1575 1575 1575 1574 1573 1572 1571 1569 1567 1565 1563 1561
1529 1533 1537 1540 1543 1546 1549 1552 1554 1557 1559 1561 1563 1565 1566 1568 1569 1570 1571 1572 1572 1573 1574 1575 1575 1575 1575 1575 1575 1575 1574 1574 1574 1573 1572 1571 1570 1569 1567 1565 1563 1562 1559
1526 1530 1534 1537 1540 1543 1546 1549 1552 1554 1557 1559 1561 1562 1564 1565 1567 1568 1569 1570 1570 1571 1572 1572 1573 1573 1574 1574 1574 1573 1573 1573 1572 1571 1570 1569 1568 1566 1565 1563 1562 1560 1558
1523 1527 1530 1534 1537 1540 1543 1546 1549 1552 1554 1556 1558 1559 1561 1563 1564 1565 1567 1567 1568 1569 1569 1570 1571 1571 1571 1571 1571 1571 1571 1571 1570 1569 1568 1566 1565 1564 1563 1561 1559 1558 1556
1520 1524 1527 1531 1535 1538 1540 1543 1546 1549 1551 1553 1555 1556 1558 1560 1561 1562 1564 1565 1566 1566 1567 1567 1568 1568 1568 1568 1569 1569 1568 1568 1567 1566 1565 1564 1563 1562 1560 1559 1557 1555 1553
1517 1520 1524 1528 1531 1535 1537 1540 1543 1545 1547 1550 1551 1553 1555 1556 1558 1559 1560 1561 1562 1563 1564 1565 1565 1565 1565 1565 1566 1565 1565 1565 1564 1563 1562 1561 1560 1559 1557 1555 1553 1552 1550
1514 1518 1521 1525 1528 1531 1534 1537 1539 1542 1544 1546 1548 1550 1551 1553 1554 1556 1557 1558 1559 1560 1561 1561 1562 1562 1562 1562 1562 1562 1562 1561 1560 1560 1558 1557 1556 1555 1553 1552 1550 1548 1546
1512 1515 1519 1522 1525 1528 1531 1534 1537 1540 1542 1544 1546 1547 1548 1550 1552 1553 1554 1555 1556 1557 1558 1557 1558 1559 1559 1559 1559 1559 1558 1557 1557 1556 1555 1554 1552 1551 1549 1548 1546 1544 1542
1509 1513 1516 1519 1522 1525 1528 1530 1533 1536 1538 1541 1542 1544 1545 1547 1548 1549 1550 1552 1553 1553 1554 1554 1554 1555 1555 1555 1555 1555 1554 1554 1553 1552 1551 1550 1549 1547 1546 1544 1542 1540 1538
1508 1511 1513 1516 1519 1522 1525 1527 1530 1532 1534 1536 1539 1540 1542 1543 1545 1546 1547 1548 1548 1549 1550 1550 1551 1551 1552 1552 1551 1551 1551 1550 1549 1548 1547 1546 1545 1543 1541 1540 1538 1536 1534
1506 1509 1512 1515 1517 1520 1522 1525 1527 1529 1531 1533 1534 1536 1538 1540 1541 1542 1543 1544 1544 1545 1546 1547 1547 1548 1548 1548 1548 1547 1547 1546 1545 1544 1543 1542 1541 1539 1537 1535 1533 1531 1529
1505 1507 1510 1513 1515 1517 1520 1522 1524 1526 1528 1529 1531 1532 1534 1535 1536 1537 1539 1540 1541 1541 1542 1543 1543 1544 1544 1544 1544 1543 1542 1542 1541 1540 1539 1537 1536 1534 1532 1530 1529 1526 1524
1504 1506 1508 1511 1513 1515 1517 1520 1522 1523 1525 1526 1528 1529 1531 1532 1533 1534 1535 1536 1537 1538 1538 1539 1539 1540 1540 1540 1539 1539 1538 1537 1536 1535 1534 1532 1531 1529 1528 1526 1524 1521 1519
1502 1504 1506 1508 1511 1513 1515 1517 1519 1521 1522 1524 1525 1526 1527 1529 1530 1531 1531 1532 1533 1534 1535 1535 1535 1535 1535 1535 1535 1534 1534 1533 1532 1530 1529 1527 1526 1524 1523 1521 1519 1516 1514
1501 1503 1504 1506 1508 1511 1513 1515 1516 1518 1519 1521 1522 1523 1524 1525 1526 1527 1528 1529 1530 1530 1531 1531 1531 1531 1531 1531 1530 1530 1529 1528 1527 1526 1524 1522 1521 1519 1517 1515 1513 1511 1509
1499 1501 1502 1504 1506 1508 1510 1512 1514 1515 1517 1518 1519 1520 1521 1522 1523 1524 1524 1525 1526 1526 1526 1527 1527 1527 1527 1526 1526 1525 1524 1524 1523 1521 1520 1518 1516 1514 1512 1510 1508 1506 1504
1497 1499 1501 1502 1504 1505 1507 1509 1511 1512 1513 1514 1515 1516 1517 1518 1519 1520 1520 1521 1521 1522 1522 1522 1522 1522 1522 1521 1521 1520 1520 1519 1518 1516 1515 1513 1511 1509 1508 1506 1503 1501 1499
1495 1497 1498 1500 1501 1503 1504 1506 1507 1509 1510 1511 1512 1512 1513 1514 1515 1516 1516 1516 1517 1517 1517 1517 1517 1517 1517 1517 1516 1515 1514 1513 1512 1511 1509 1508 1506 1504 1502 1500 1498 1496 1494